This demonstration page uses our WeatherBlox Daily Observations layout. Learn more.

38.80484, -77.04692

Hourly Observations for November 19, 2019

Temp ( °F °C ) Dew Point ( °F °C ) Humidity (%) Winds ( mph kmh ) Pressure ( in mb ) Visibility ( mi km ) Precip ( " mm )
12:41 am 00:41 Cloudy with Light Rain 44 6.7 43 6.1 96 96 S 5 7 29.77 1008 5 8.0467 0.03 0.762
12:48 am 00:48 Cloudy with Light Rain 45 7 43 6 93 93 S 5 7 29.77 1008 5 8.0467 0.03 0.762
12:52 am 00:52 Cloudy with Light Rain 44 6.7 43 6.1 96 96 S 5 7 29.77 1008 6 9.65604 0.03 0.762
1:52 am 01:52 Cloudy with Mist and Fog 44 6.7 43 6.1 96 96 S 10 17 29.77 1008 5 8.0467 0.001 0.001
2:17 am 02:17 Cloudy with Mist and Fog 44 6.7 43 6.1 96 96 SW 6 9 29.77 1008 5 8.0467 0 0
2:52 am 02:52 Cloudy with Mist and Fog 45 7.2 43 6.1 93 93 WSW 3 6 29.78 1008 6 9.65604 0 0
3:52 am 03:52 Cloudy with Mist and Fog 44 6.7 42 5.6 93 93 S 3 6 29.77 1008 5 8.0467 0 0
4:52 am 04:52 Cloudy with Mist and Fog 44 6.7 43 6.1 96 96 S 6 9 29.78 1009 4 6.43736 0 0
5:52 am 05:52 Cloudy with Mist and Fog 45 7.2 43 6.1 93 93 SW 3 6 29.8 1009 5 8.0467 0 0
6:52 am 06:52 Cloudy with Mist and Fog 45 7.2 43 6.1 93 93 WSW 6 9 29.82 1010 6 9.65604 0 0
7:28 am 07:28 Mostly Cloudy with Mist and Fog 44 6.7 42 5.6 93 93 W 3 6 29.82 1010 5 8.0467 0 0
7:52 am 07:52 Mostly Cloudy 44 6.7 42 5.6 93 93 WSW 3 6 29.83 1010 7 11.26538 0 0
8:43 am 08:43 Mostly Cloudy 46 7.8 43 6.1 89 89 SSW 8 13 29.86 1011 7 11.26538 0 0
8:52 am 08:52 Mostly Cloudy 45 7.2 42 5.6 90 90 SSW 8 13 29.85 1011 8 12.87472 0 0
9:07 am 09:07 Partly Cloudy 46 7.8 43 6.1 89 89 SSW 7 11 29.86 1011 8 12.87472 0 0
9:52 am 09:52 Mostly Sunny 48 8.9 42 5.6 80 80 W 5 7 29.85 1011 9 14.48406 0 0
10:52 am 10:52 Partly Cloudy 50 10 44 6.7 80 80 S 7 11 29.85 1011 10 16.0934 0 0
11:52 am 11:52 Mostly Cloudy 50 10 44 6.7 80 80 S 8 13 29.84 1010 10 16.0934 0 0
12:52 pm 12:52 Cloudy 54 12.2 39 3.9 57 57 W 7 11 29.82 1010 10 16.0934 0 0
1:52 pm 13:52 Mostly Cloudy 56 13.3 37 2.8 49 49 NNW 8 13 29.81 1009 10 16.0934 0 0
2:52 pm 14:52 Mostly Cloudy 54 12.2 37 2.8 53 53 WNW 6 9 29.81 1010 10 16.0934 0 0
3:52 pm 15:52 Mostly Cloudy 53 11.7 36 2.2 52 52 WNW 7 11 29.82 1010 10 16.0934 0 0
4:52 pm 16:52 Mostly Cloudy 52 11.1 37 2.8 57 57 SW 5 7 29.83 1010 10 16.0934 0 0
5:52 pm 17:52 Mostly Cloudy 53 11.7 37 2.8 55 55 W 5 7 29.85 1011 10 16.0934 0 0
6:52 pm 18:52 Cloudy 51 10.6 40 4.4 66 66 SSW 7 11 29.86 1011 10 16.0934 0 0
7:52 pm 19:52 Cloudy 52 11.1 40 4.4 64 64 WSW 3 6 29.87 1011 10 16.0934 0 0
8:52 pm 20:52 Cloudy 48 8.9 44 6.7 86 86 S 5 7 29.88 1012 10 16.0934 0 0
9:52 pm 21:52 Cloudy 48 8.9 44 6.7 86 86 SSW 5 7 29.88 1012 10 16.0934 0 0
10:52 pm 22:52 Cloudy 48 8.9 44 6.7 86 86 S 5 7 29.88 1012 10 16.0934 0 0
11:52 pm 23:52 Cloudy 48 8.9 43 6.1 83 83 S 5 7 29.88 1012 10 16.0934 0 0

Powered by AerisWeather